Location: Unspecified
(10.5000°N, 0.0000°E)
Time: 03:06:24
(UTC+00:00)

Tiangong 2 - Pass Details

Date: 20 June 2019
Orbit: 378 x 386 km, 42.8° (Epoch: 17 July)

Event Time Altitude Azimuth Distance (km) Brightness Sun altitude
Exits shadow 04:22:08 17° 320° (NW) 1,031 3.1 -17.8°
Drops below altitude 10° 04:24:18 10° 4° (N) 1,390 4.3 -17.4°
Sets 04:26:49 0° 25° (NNE) 2,244 5.8 -16.8°
